Regional Weather Roundup
Issued by NWS Goodland, KS

Home | Current Version | Previous Version | Text Only | Print | Product List | Glossary On
Versions: 1 2 3 4 5 6 7 8 9 10 11 12 13 14 15 16 17 18 19 20 21 22 23 24 25 26 27 28 29 30 31 32 33 34 35 36 37 38 39 40 41 42 43 44 45 46 47 48 49 50
000
ASUS43 KGLD 101159
RWRGLD

GOODLAND FORECAST AREA HOURLY WEATHER ROUNDUP
NATIONAL WEATHER SERVICE GOODLAND KS
500 AM MST SAT DEC 10 2016

...OFFICIAL OBSERVATIONS...

CITY           SKY/WX    TMP DP  RH WIND       PRES   REMARKS
GOODLAND KS    CLOUDY    15  12  88 E6        30.05F
HILL CITY KS   CLOUDY    19  13  77 SE9       30.19F
IMPERIAL NEB   CLOUDY    18  14  84 SE10      30.08F WCI   6
MCCOOK NEB     CLOUDY    19  15  84 E8        30.15F
AKRON CO       CLOUDY    15  13  91 CALM      29.97F
BURLINGTON CO  CLOUDY    21  17  84 S6        30.01F
LIMON CO       CLOUDY    12  11  95 CALM      29.98F
$$

...UNOFFICIAL OBSERVATIONS...

CITY           SKY/WX    TMP DP  RH WIND       PRES   REMARKS
COLBY KS       PTCLDY    18  16  93 SE6       30.12F
LENORA KS        N/A     18  32 100 MISG        N/A
NORTON KS      CLEAR     18  10  73 E3        30.20R
SHARON SPRINGS   N/A     19  16  89 SW7G17      N/A
TRENTON NEB      N/A     17  32 100 SE5         N/A
KIT CARSON CO    N/A     17  14  87 CALM        N/A
YUMA CO        FAIR      10   9  92 CALM      30.00F
$$




USA.gov is the U.S. government's official web portal to all federal, state and local government web resources and services.